Location: Wanzleben
(52.0609°N, 11.4408°E)
Time: 11:21:58
(UTC+00:00)

Cosmos 2263 Rocket - Pass Details

Date: 17 January 2021
Orbit: 825 x 847 km, 71.0° (Epoch: 24 February)

Event Time Altitude Azimuth Distance (km) Brightness Sun altitude
Rises 16:22:24 0° 176° (S) 3,397 5.6 -7.1°
Reaches altitude 10° 16:25:05 10° 166° (SSE) 2,465 4.8 -7.5°
Maximum altitude 16:29:59 31° 106° (ESE) 1,439 3.0 -8.2°
Drops below altitude 10° 16:34:54 10° 46° (NE) 2,472 4.1 -8.9°
Enters shadow 16:35:19 - 44° (NE) 2,612 4.2 -8.9°
